Dewpoint
1 1 4 4 4 3 2 2 1 3 2 -2 2 7 6 7 7 6 4 3 -0 -8 -8 -3 1 3 4 3 3 -4 -2 -2 -0 -1 -1 -3 -3 -4 -4 -6 -6 -6 -7 -7 -8
1 1 2 2 2 3 1 2 1 3 3 1 -2 2 7 7 7 6 6 3 0 -5 -4 -1 1 0 1 1 -3 -3 -1 -1 -1 -2 -2 -3 -5 -6 -6 -6 -6 -7 -8 -8 -9
1 -0 1 1 0 1 1 2 -0 2 2 2 2 1 2 5 5 6 7 4 -3 -2 -2 -1 -2 -2 -1 -1 -3 -4 -1 -2 0 -2 -4 -5 -5 -6 -5 -6 -7 -9 -9 -9 -9
1 -0 -0 -1 -1 1 2 2 1 0 2 2 1 1 2 6 4 5 5 -0 -6 -2 -3 -2 -1 -3 -1 -1 -3 -3 -3 -2 -2 -3 -4 -4 -6 -7 -7 -8 -8 -9 -9 -9 -9
0 -2 -0 -0 -0 -0 0 -1 -1 -1 2 1 2 3 5 4 5 6 5 4 -4 -3 -3 -2 -4 -4 -2 -2 -5 -4 -3 -3 -3 -5 -6 -6 -7 -6 -8 -9 -9 -8 -4 -3 -3
1 -1 -1 -3 -4 -3 -2 -0 0 0 1 1 2 3 4 5 4 4 8 -1 -2 -2 -3 -3 -4 -4 -3 -3 -3 -2 -3 -4 -6 -6 -6 -6 -6 -6 -9 -8 -8 -5 -3 -3 -2
1 -0 -0 -1 -3 -1 -0 -0 2 2 2 2 0 3 4 5 5 4 4 0 0 -0 -1 -2 -4 -4 -4 -4 -4 -6 -5 -5 -5 -5 -5 -4 -4 -3 -9 -7 -5 -2 -2 -0 2
1 -1 -3 -2 -3 -1 -1 -1 -1 1 2 1 1 3 4 5 6 6 1 0 -0 -1 -2 -4 -4 -4 -4 -5 -5 -4 -5 -3 -5 -5 -3 -3 -10 -4 -7 -5 -3 -2 1 2 4
-0 -2 -2 -1 -2 -2 -1 -1 1 2 2 3 3 2 4 4 5 1 1 -0 -1 -1 -3 -4 -5 -5 -5 -2 -1 -4 2 -2 -2 -4 -2 -2 -3 -4 -7 -4 -3 -1 1 2 3
-3 -2 -2 -1 -2 -2 -2 -2 2 2 2 3 2 3 4 4 3 1 -1 -3 -4 -7 -8 -8 -4 -3 -3 1 -1 -1 -1 -2 -3 -1 -2 -1 -0 -2 -3 -2 -2 -0 1 2 3
-2 -4 -4 -3 1 -1 -4 1 2 2 2 3 3 3 3 3 2 1 -1 -4 -6 -4 -3 -1 -0 -0 -2 -3 -3 -3 -2 -0 -1 -1 -1 0 1 0 -1 -1 -0 1 2 2 2
-1 -1 -3 -1 1 0 -1 1 2 2 1 2 3 3 3 3 3 -1 -2 -3 -3 -1 -4 0 0 -3 -2 -2 -2 -1 -1 2 1 0 0 1 2 1 0 1 1 1 2 3 3
1 -1 -1 -4 1 0 0 1 1 0 1 1 2 2 3 1 1 0 -1 -3 -2 -2 -1 0 -1 -3 -0 1 0 -0 0 2 2 2 2 2 2 1 1 1 1 1 3 3 3
-1 -1 -2 -3 -0 0 -1 0 1 1 1 1 2 2 2 1 1 1 -0 -1 -3 -1 -0 -1 -3 -2 1 2 0 2 0 1 3 2 3 1 2 2 1 2 2 3 3 3 3
-1 -1 -2 -2 -1 -0 -1 0 0 1 0 2 2 2 2 2 0 -2 1 -0 -2 -0 -0 1 -1 -0 1 2 -1 3 1 2 3 3 2 2 2 2 2 2 3 4 3 3 2
-1 -0 -2 -2 -2 -1 -0 0 0 -1 3 3 3 3 3 1 0 -2 0 -0 -1 0 0 -0 -1 -0 1 -0 -0 0 2 3 2 3 3 2 3 3 2 1 3 3 3 3 2
-1 -1 -1 -1 -1 0 1 -1 0 2 2 4 4 2 0 1 0 1 1 1 3 -0 2 2 1 0 0 2 1 1 2 2 2 3 3 3 4 2 2 3 3 3 3 2 3
-3 -2 -0 -0 0 1 -0 1 2 4 4 3 2 1 2 -0 0 1 1 2 -0 2 3 2 0 3 1 2 3 4 4 2 2 4 3 3 3 2 3 3 3 2 2 1 2
1 -0 -3 -3 -1 -0 0 3 2 3 1 2 1 2 2 1 1 1 2 2 1 1 2 4 4 2 1 -0 3 4 6 4 3 3 2 2 2 3 3 3 2 2 1 1 1
1 2 2 1 1 1 0 1 1 -0 -1 -1 1 -1 1 2 2 2 1 1 2 1 1 2 4 3 2 2 2 4 3 5 5 4 5 3 4 5 5 4 3 2 2 1 1
2 1 1 3 1 0 1 1 1 0 1 1 0 -0 -0 1 1 1 1 1 1 1 1 2 3 4 3 4 4 4 4 3 2 4 5 5 4 4 3 3 3 2 1 1 2
1 1 1 2 1 2 1 2 0 0 0 -0 1 1 1 0 1 2 3 2 2 2 3 1 3 4 3 2 1 2 2 2 3 5 4 3 3 3 2 2 2 2 1 1 2
1 1 1 3 1 0 1 1 1 1 0 1 1 1 0 1 2 1 2 1 2 2 2 1 3 2 2 0 -0 1 1 2 0 1 2 3 3 3 2 2 2 2 1 1 2
0 0 1 0 1 1 1 1 2 0 -0 -1 -0 -0 0 -0 -1 1 2 1 1 2 1 1 2 2 3 1 1 2 1 1 1 2 1 3 2 3 3 2 2 2 1 1 1
-1 -0 1 0 -1 -0 -0 0 1 1 -0 -1 -1 -1 -0 -0 -1 0 1 1 1 2 1 1 3 1 1 1 1 1 0 0 2 1 2 -0 -0 -2 1 2 1 0 1 1 1
-1 0 -1 -1 -1 -1 -1 0 1 1 0 -0 -1 -1 -2 -1 -0 0 -1 -1 1 1 1 0 1 1 0 -0 0 1 0 -0 -1 1 0 -0 -0 -4 -4 -4 -0 1 1 1 1
-4 -2 -1 -3 -2 -2 -1 -0 0 0 -0 -1 -1 -1 -1 -0 -1 -2 -1 -1 -1 -0 0 1 1 0 0 0 0 -3 -3 -2 -1 -2 -1 1 -1 -3 -4 -2 -1 0 1 0 -0
Wind_Speed
13 11 8 14 10 12 7 6 6 5 4 7 11 14 13 10 6 7 5 2 4 9 9 13 16 11 7 5 3 2 4 2 5 3 4 4 3 5 5 3 3 2 3 4 1
10 7 6 5 4 7 10 6 7 7 5 6 8 13 15 9 5 8 5 3 3 11 15 15 14 13 7 4 2 5 4 3 3 3 4 6 7 4 3 6 2 6 5 7 7
6 2 3 4 9 9 11 8 5 8 5 6 7 6 14 15 7 1 5 4 7 15 15 11 15 9 7 5 2 2 3 5 5 8 10 6 5 7 2 3 4 7 13 13 16
6 2 4 4 6 7 8 7 6 8 7 5 4 7 15 17 6 5 6 6 14 14 11 14 12 7 4 4 3 5 8 7 4 6 4 2 6 7 5 8 11 12 12 15 14
9 5 6 6 5 5 6 8 6 8 7 4 4 6 16 12 5 4 11 7 15 15 12 12 12 5 7 6 5 4 3 6 5 3 2 3 6 6 13 14 9 6 7 9 8
10 10 9 8 7 6 7 6 5 7 7 5 5 10 14 6 8 9 14 8 14 17 11 3 2 4 9 6 3 6 9 8 4 2 3 2 4 6 3 8 2 4 6 6 5
11 10 9 8 9 10 12 8 7 9 9 7 6 13 9 10 14 18 17 11 9 10 10 6 6 4 7 5 6 7 4 2 2 3 1 4 1 6 11 6 2 4 4 7 10
14 12 10 10 10 10 10 9 6 6 7 6 8 14 6 9 15 13 16 13 10 12 13 11 10 13 5 11 4 3 4 2 2 3 1 2 5 4 11 6 3 1 5 6 7
16 12 11 10 11 10 9 8 9 12 9 10 11 12 6 12 15 18 15 13 12 11 12 12 13 6 6 4 5 3 2 3 1 5 1 2 5 6 8 18 11 4 4 3 1
15 13 13 11 9 10 10 10 16 15 16 12 13 8 8 7 19 15 16 10 12 14 12 6 4 3 3 4 4 4 3 1 2 3 2 4 11 10 24 18 11 6 7 5 2
15 13 11 13 12 16 14 15 11 11 24 9 13 11 21 20 20 15 7 11 13 2 3 2 6 3 5 3 3 2 4 3 1 3 2 4 9 11 17 16 8 8 7 3 6
8 11 11 15 17 16 10 10 10 10 10 24 23 21 18 13 9 8 8 2 1 4 3 5 4 3 6 6 5 5 2 2 2 2 2 5 11 14 11 4 12 8 5 4 0
7 9 12 12 14 9 13 21 17 10 7 12 15 12 8 14 8 5 6 2 4 3 4 6 3 4 5 4 3 2 3 3 1 5 3 7 6 2 2 8 8 5 9 4 4
13 13 15 16 12 14 19 18 11 4 4 8 8 8 8 5 6 3 4 3 3 6 7 6 0 4 5 3 2 3 4 4 3 4 1 5 4 5 4 5 5 9 6 2 6
15 16 14 8 15 13 16 10 4 3 6 7 5 5 10 6 5 3 6 4 4 3 5 3 3 2 3 1 2 2 3 3 3 4 5 3 3 7 3 5 4 5 5 1 5
16 18 23 22 22 19 14 3 8 5 7 3 1 4 4 1 2 1 3 4 6 8 8 4 3 2 2 3 4 2 3 2 1 2 2 5 5 5 4 5 4 5 0 5 7
10 12 17 18 15 15 7 9 4 6 1 4 4 3 6 7 7 4 2 2 2 5 4 2 2 2 1 4 3 2 4 2 3 1 5 1 3 8 4 1 3 2 4 7 8
7 7 5 6 7 5 6 4 9 5 5 1 4 7 4 4 2 1 4 2 2 4 3 4 5 3 3 2 5 2 1 3 4 1 4 2 5 5 4 5 4 1 4 9 6
18 13 6 3 8 8 2 6 5 4 6 7 5 3 2 2 3 2 4 2 2 3 5 4 1 1 3 3 4 2 2 2 2 3 3 3 6 1 3 3 5 4 5 7 9
9 9 13 10 7 5 5 5 4 2 2 4 2 1 3 4 2 3 2 1 2 3 4 4 4 5 2 3 4 2 4 2 1 2 4 5 5 5 4 7 6 6 7 7 7
7 4 10 7 12 10 4 3 3 6 4 1 4 4 3 4 6 3 2 0 3 2 2 1 3 1 5 6 8 5 3 4 2 2 1 3 5 5 6 7 7 9 9 8 8
8 4 11 6 5 4 2 0 1 2 4 2 4 6 2 2 4 4 3 2 5 6 2 2 2 3 8 5 6 5 6 5 4 4 3 3 6 5 6 7 9 10 11 11 13
5 4 11 8 3 2 0 2 3 3 3 4 3 2 1 2 3 3 3 3 5 1 3 2 2 2 6 6 3 4 5 5 3 3 6 4 5 2 4 5 11 12 13 15 15
4 2 4 5 6 1 2 2 2 2 2 4 1 3 2 0 0 4 3 3 6 1 1 2 2 5 7 4 3 4 6 7 6 3 3 8 7 5 7 8 12 18 17 18 20
3 2 1 1 3 4 3 3 2 2 3 0 1 4 2 1 1 2 3 2 3 4 1 3 3 2 6 8 5 7 8 8 11 12 7 3 8 5 7 10 23 25 22 23 25
4 3 2 3 2 4 3 3 4 3 4 3 3 4 3 3 3 1 2 3 4 2 3 1 3 4 5 7 5 7 11 15 15 15 16 16 25 12 29 24 21 27 27 30 30
6 5 2 1 2 3 1 2 2 1 1 1 1 3 3 3 3 5 6 6 4 5 5 5 2 3 5 6 8 7 9 18 9 8 21 16 24 6 9 8 20 28 31 32 31
Wind_Direction
286 259 248 227 196 198 220 216 200 208 145 113 173 181 177 191 147 147 126 242 158 142 136 118 131 114 138 115 100 10 67 29 358 85 130 66 74 40 2 334 11 30 7 354 53
263 263 264 228 221 219 217 206 189 192 177 148 122 182 189 178 116 154 160 207 218 141 125 119 131 113 98 117 37 65 85 86 19 36 81 84 68 357 9 357 332 322 271 272 278
234 153 172 219 228 210 200 181 176 188 175 143 148 169 180 194 178 333 210 218 179 146 135 136 131 113 93 123 60 65 111 154 57 66 67 51 5 340 39 303 82 345 321 296 292
143 120 106 130 159 181 189 201 190 193 180 149 123 170 157 162 149 222 197 180 162 157 139 147 154 132 117 119 85 100 68 73 120 68 61 58 326 317 252 246 300 313 307 302 306
106 101 108 103 115 147 180 216 199 194 175 156 125 147 150 151 130 190 140 176 161 154 128 146 156 144 139 119 107 73 115 86 103 50 353 296 274 256 272 269 270 288 344 345 336
88 91 93 91 89 107 134 135 147 162 171 169 168 164 154 114 169 189 147 154 145 138 144 151 241 114 114 121 84 107 108 120 115 108 272 270 266 340 234 150 179 346 345 343 1
82 86 80 72 88 98 103 113 125 143 149 149 146 161 149 136 160 185 123 127 129 145 143 115 131 103 107 93 108 106 100 351 213 173 227 327 262 219 206 196 269 349 28 59 25
71 62 70 81 98 110 103 110 122 127 118 116 138 146 114 151 152 149 122 150 142 148 146 129 129 106 83 117 73 86 58 100 228 161 245 30 266 212 165 189 257 350 101 69 61
71 72 82 88 113 111 108 103 99 110 104 115 132 137 93 159 144 129 141 132 140 137 144 138 134 83 110 87 34 14 174 168 342 216 137 189 266 229 178 305 287 200 131 87 118
67 71 72 77 96 116 119 101 100 112 88 90 113 96 127 109 121 109 109 106 111 113 106 105 83 82 46 74 191 191 154 72 178 209 210 237 263 267 288 292 278 174 128 130 288
66 68 80 91 93 117 119 96 84 56 58 58 83 76 96 104 101 100 73 108 111 103 106 58 75 117 124 97 104 95 94 122 307 119 236 240 272 275 266 278 156 138 124 78 342
61 63 95 118 108 112 113 99 93 114 53 71 69 80 101 110 100 113 113 51 212 96 111 41 92 88 91 58 67 47 74 35 78 354 271 278 281 289 263 214 157 142 136 120 275
69 82 106 128 139 92 122 117 115 104 77 35 25 36 51 78 86 75 33 102 134 93 65 99 129 111 74 44 82 76 63 53 146 330 332 334 303 201 62 139 145 137 132 117 355
78 89 118 127 131 115 127 121 100 42 85 5 15 23 32 93 61 36 38 30 33 116 99 85 7 81 92 55 62 95 15 75 5 49 298 66 280 293 207 203 184 127 119 73 341
83 84 109 124 127 136 141 136 31 346 71 355 19 64 54 51 133 26 41 50 69 92 82 255 125 104 88 139 35 120 24 1 34 5 47 327 65 273 191 229 166 150 127 357 331
93 97 111 116 120 128 149 184 321 45 55 51 104 28 90 122 41 129 24 77 93 66 60 96 133 58 46 86 57 3 45 8 68 44 359 222 149 275 203 208 168 156 218 316 317
97 118 129 130 139 151 167 331 53 61 244 12 70 114 106 105 168 196 133 69 124 89 27 173 124 117 66 123 82 56 63 22 354 345 219 209 153 249 216 162 129 184 290 319 313
118 135 138 161 165 174 322 37 62 12 59 114 160 148 93 135 348 83 143 64 11 87 137 123 336 182 176 228 168 93 134 162 213 283 269 326 240 256 148 168 177 244 324 325 305
84 84 71 258 236 261 312 51 131 197 151 177 185 125 105 179 156 233 140 106 44 48 121 125 310 138 193 158 138 168 201 121 64 283 35 240 282 288 171 202 202 238 299 290 285
46 46 54 72 81 83 62 86 64 104 75 180 235 121 123 180 140 175 128 7 109 11 51 161 97 215 175 52 270 189 148 151 117 35 288 292 274 240 253 252 218 220 238 259 274
16 34 18 45 63 57 88 81 50 354 344 332 16 119 161 185 189 135 98 237 127 172 347 25 141 185 121 207 177 182 219 208 187 179 240 288 264 209 211 220 222 224 226 230 224
39 43 3 24 52 56 52 219 103 292 327 318 36 44 75 294 70 58 115 117 132 158 183 211 128 171 209 229 164 176 192 169 131 220 223 188 273 181 196 205 216 216 215 216 218
69 57 23 25 83 344 36 50 65 23 2 15 39 40 317 69 94 110 97 138 148 173 186 196 216 59 348 348 337 214 207 197 132 89 217 156 258 141 164 193 219 218 214 214 199
108 46 65 62 42 48 36 101 59 3 341 348 9 338 311 276 166 150 137 188 178 95 123 58 254 196 193 202 138 213 211 200 156 145 221 231 278 229 237 228 224 223 221 217 213
61 117 69 333 2 11 54 346 70 29 354 321 80 39 36 330 147 116 130 123 183 186 177 140 244 237 254 258 242 234 234 223 206 212 201 250 242 238 222 221 229 231 219 216 221
100 110 132 141 304 357 42 23 34 9 23 357 75 327 7 112 154 235 11 163 199 196 193 159 277 1 282 284 257 253 240 230 236 232 244 256 275 257 267 270 235 227 217 219 225
96 106 121 328 340 97 239 185 157 172 268 208 248 346 291 201 259 266 248 255 230 168 203 162 172 32 274 331 315 292 227 218 213 204 218 230 243 250 272 231 227 220 218 225 233
Height
1459 1459 1461 1462 1464 1467 1470 1471 1473 1474 1476 1477 1478 1481 1484 1488 1490 1493 1495 1498 1498 1499 1500 1504 1505 1505 1507 1510 1512 1513 1522 1526 1527 1523 1529 1527 1527 1530 1531 1531 1532 1532 1534 1536 1535
1457 1457 1459 1462 1463 1465 1469 1470 1471 1474 1474 1478 1477 1479 1484 1486 1490 1492 1496 1497 1498 1499 1501 1503 1506 1506 1509 1512 1514 1513 1526 1525 1526 1524 1527 1527 1529 1531 1532 1532 1532 1532 1533 1533 1532
1456 1457 1459 1460 1462 1464 1467 1468 1470 1472 1474 1476 1477 1479 1482 1486 1491 1492 1494 1497 1498 1499 1500 1503 1507 1509 1509 1513 1515 1517 1523 1523 1526 1525 1525 1528 1531 1532 1532 1533 1533 1534 1532 1531 1530
1455 1458 1459 1460 1462 1464 1466 1468 1470 1473 1473 1476 1477 1479 1481 1487 1492 1491 1494 1497 1499 1500 1500 1503 1506 1509 1512 1515 1516 1522 1522 1523 1526 1526 1527 1530 1532 1532 1532 1531 1532 1532 1531 1531 1529
1457 1459 1460 1462 1463 1465 1466 1467 1470 1472 1473 1475 1478 1479 1481 1484 1488 1491 1493 1497 1499 1501 1502 1504 1505 1508 1512 1514 1516 1520 1523 1524 1526 1526 1528 1530 1531 1533 1530 1529 1531 1531 1530 1530 1528
1461 1461 1463 1464 1465 1465 1466 1469 1470 1472 1474 1476 1479 1480 1483 1486 1490 1491 1493 1498 1500 1501 1504 1505 1507 1509 1511 1514 1518 1519 1523 1525 1526 1527 1529 1530 1530 1531 1527 1527 1528 1528 1528 1528 1527
1464 1464 1465 1466 1467 1467 1467 1469 1472 1474 1475 1477 1479 1481 1485 1488 1490 1492 1494 1499 1500 1501 1503 1506 1506 1508 1511 1516 1520 1520 1525 1526 1526 1528 1529 1528 1527 1527 1524 1526 1526 1526 1525 1525 1526
1467 1468 1467 1468 1468 1469 1470 1472 1474 1475 1476 1477 1479 1482 1486 1488 1491 1494 1496 1499 1500 1502 1503 1505 1507 1509 1514 1519 1521 1523 1526 1532 1528 1527 1529 1530 1528 1521 1522 1524 1523 1523 1522 1522 1523
1470 1469 1470 1470 1470 1471 1473 1474 1475 1476 1478 1479 1482 1483 1489 1490 1494 1497 1499 1501 1502 1504 1505 1507 1510 1514 1518 1522 1534 1527 1540 1527 1529 1527 1529 1531 1527 1522 1520 1520 1521 1521 1519 1520 1520
1472 1472 1472 1472 1472 1473 1474 1476 1478 1480 1481 1483 1484 1488 1492 1491 1494 1497 1501 1502 1503 1506 1510 1511 1513 1518 1521 1528 1548 1534 1535 1526 1528 1529 1529 1530 1527 1522 1519 1518 1516 1518 1517 1517 1517
1475 1474 1474 1474 1474 1475 1478 1480 1484 1486 1485 1488 1490 1489 1493 1494 1496 1502 1504 1505 1507 1509 1512 1513 1520 1529 1524 1523 1523 1524 1525 1528 1525 1528 1529 1527 1525 1517 1515 1515 1515 1515 1515 1515 1515
1476 1475 1476 1477 1478 1479 1481 1482 1484 1489 1492 1492 1492 1494 1498 1500 1505 1505 1507 1508 1510 1511 1511 1518 1527 1523 1521 1522 1524 1525 1525 1528 1527 1526 1526 1524 1519 1512 1508 1509 1510 1512 1513 1512 1514
1477 1477 1477 1479 1481 1482 1484 1485 1487 1489 1494 1501 1500 1501 1502 1505 1507 1507 1508 1508 1510 1512 1514 1522 1526 1523 1524 1527 1527 1529 1529 1533 1536 1528 1523 1523 1520 1510 1508 1508 1509 1511 1511 1512 1512
1479 1478 1479 1480 1486 1485 1487 1488 1490 1490 1498 1511 1508 1507 1508 1506 1511 1510 1509 1511 1510 1517 1518 1524 1525 1525 1527 1528 1527 1530 1529 1529 1529 1537 1549 1532 1549 1518 1509 1509 1509 1511 1510 1511 1511
1482 1482 1483 1484 1485 1487 1490 1489 1489 1490 1515 1516 1513 1513 1511 1512 1514 1513 1512 1511 1512 1514 1518 1532 1528 1527 1526 1528 1527 1533 1529 1530 1531 1535 1545 1536 1552 1522 1509 1510 1511 1511 1510 1510 1510
1486 1486 1486 1487 1489 1490 1491 1491 1491 1502 1512 1517 1517 1516 1516 1514 1515 1514 1514 1514 1515 1518 1520 1525 1526 1527 1528 1528 1529 1530 1531 1531 1530 1535 1560 1533 1540 1524 1513 1505 1508 1510 1509 1509 1507
1491 1490 1490 1490 1492 1491 1492 1491 1498 1509 1522 1519 1518 1517 1514 1516 1516 1515 1515 1516 1520 1534 1537 1526 1528 1528 1528 1530 1530 1529 1538 1561 1561 1562 1555 1523 1534 1515 1503 1504 1505 1506 1507 1507 1506
1495 1495 1494 1494 1493 1493 1494 1494 1502 1514 1515 1518 1516 1515 1514 1515 1514 1514 1516 1519 1515 1517 1535 1540 1550 1529 1527 1527 1534 1532 1535 1558 1569 1555 1551 1524 1531 1510 1502 1503 1503 1503 1503 1504 1504
1497 1497 1496 1495 1494 1494 1495 1499 1515 1514 1512 1514 1514 1512 1514 1513 1513 1514 1514 1516 1516 1515 1528 1533 1536 1527 1527 1525 1528 1536 1537 1534 1549 1540 1556 1539 1513 1502 1502 1501 1501 1501 1501 1501 1500
1501 1498 1498 1497 1496 1496 1498 1506 1508 1506 1507 1509 1509 1506 1513 1513 1513 1513 1514 1515 1516 1515 1516 1519 1534 1526 1527 1527 1528 1529 1530 1536 1544 1556 1530 1532 1516 1508 1502 1499 1498 1499 1498 1499 1498
1501 1500 1502 1500 1499 1499 1513 1513 1510 1510 1510 1509 1505 1507 1509 1509 1510 1510 1515 1516 1514 1516 1515 1516 1519 1529 1528 1529 1524 1529 1530 1529 1529 1527 1533 1536 1515 1492 1494 1495 1495 1495 1495 1496 1496
1503 1504 1505 1502 1503 1507 1515 1510 1510 1510 1508 1508 1507 1508 1508 1505 1506 1511 1514 1514 1513 1515 1517 1518 1521 1536 1523 1515 1514 1518 1521 1522 1539 1531 1525 1532 1512 1486 1490 1492 1493 1493 1493 1494 1494
1506 1507 1508 1505 1517 1518 1512 1511 1511 1511 1510 1509 1509 1509 1508 1508 1513 1512 1515 1515 1515 1516 1518 1519 1523 1542 1532 1525 1516 1517 1516 1515 1520 1528 1532 1537 1509 1490 1490 1491 1490 1491 1491 1491 1491
1506 1511 1510 1510 1511 1512 1512 1512 1514 1512 1512 1511 1510 1510 1510 1509 1507 1512 1514 1515 1515 1516 1517 1517 1519 1520 1524 1513 1511 1515 1511 1512 1518 1540 1524 1514 1499 1492 1490 1488 1487 1486 1486 1487 1488
1506 1511 1513 1518 1512 1513 1512 1513 1512 1514 1512 1511 1510 1511 1511 1510 1509 1511 1512 1515 1515 1515 1516 1518 1522 1516 1513 1510 1509 1509 1509 1508 1512 1507 1514 1497 1493 1483 1482 1481 1477 1477 1481 1481 1481
1508 1510 1511 1511 1512 1513 1513 1515 1516 1515 1514 1512 1512 1511 1509 1511 1513 1513 1512 1511 1513 1516 1516 1517 1522 1517 1523 1506 1507 1507 1501 1500 1499 1498 1496 1492 1481 1474 1468 1468 1470 1469 1472 1472 1472
1508 1509 1510 1512 1512 1514 1516 1515 1515 1514 1514 1513 1513 1513 1511 1511 1511 1510 1510 1510 1511 1514 1515 1518 1522 1526 1521 1509 1505 1501 1486 1482 1482 1480 1477 1486 1458 1463 1463 1463 1461 1460 1462 1463 1465